| time (UTC) | temp F | wind direction | speed knots | gust knots | rain 1hr in | rain 24hr in | rain mn in | humidity % | barometer mb |
| 20260505184501 | 79 | 171 | 2.6 | 7.0 | 0.00 | 0.00 | 0.00 | 42 | 1015.4 |
| 20260505184002 | 79 | 309 | 1.7 | 7.0 | 0.00 | 0.00 | 0.00 | 41 | 1015.4 |
| 20260505183500 | 79 | 278 | 1.7 | 7.8 | 0.00 | 0.00 | 0.00 | 41 | 1015.4 |
| 20260505183001 | 79 | 13 | 2.6 | 7.8 | 0.00 | 0.00 | 0.00 | 42 | 1015.5 |
| 20260505182501 | 78 | 266 | 2.6 | 7.8 | 0.00 | 0.00 | 0.00 | 41 | 1015.5 |
| 20260505182002 | 78 | 301 | 2.6 | 7.0 | 0.00 | 0.00 | 0.00 | 43 | 1015.7 |
| 20260505181501 | 78 | 325 | 2.6 | 8.7 | 0.00 | 0.00 | 0.00 | 44 | 1015.7 |
| 20260505181001 | 78 | 304 | 2.6 | 8.7 | 0.00 | 0.00 | 0.00 | 43 | 1015.7 |
| 20260505180005 | 78 | 284 | 4.3 | 11.3 | 0.00 | 0.00 | 0.00 | 43 | 1016.1 |
| 20260505175501 | 78 | 226 | 3.5 | 14.8 | 0.00 | 0.00 | 0.00 | 41 | 1016.4 |
| 20260505175001 | 78 | 247 | 2.6 | 10.4 | 0.00 | 0.00 | 0.00 | 40 | 1016.4 |
| 20260505174503 | 78 | 287 | 2.6 | 8.7 | 0.00 | 0.00 | 0.00 | 40 | 1016.5 |
| 20260505174001 | 77 | 279 | 2.6 | 8.7 | 0.00 | 0.00 | 0.00 | 39 | 1016.5 |
| 20260505173501 | 78 | 328 | 2.6 | 9.6 | 0.00 | 0.00 | 0.00 | 41 | 1016.4 |
| 20260505173001 | 78 | 340 | 3.5 | 10.4 | 0.00 | 0.00 | 0.00 | 37 | 1016.3 |
| 20260505172504 | 77 | 327 | 2.6 | 10.4 | 0.00 | 0.00 | 0.00 | 40 | 1016.5 |
| 20260505172001 | 77 | 315 | 2.6 | 8.7 | 0.00 | 0.00 | 0.00 | 37 | 1016.4 |
| 20260505171502 | 78 | 331 | 2.6 | 7.8 | 0.00 | 0.00 | 0.00 | 37 | 1016.4 |
| 20260505170502 | 79 | 334 | 4.3 | 12.2 | 0.00 | 0.00 | 0.00 | 35 | 1016.3 |
| 20260505165503 | 78 | 264 | 2.6 | 9.6 | 0.00 | 0.00 | 0.00 | 40 | 1016.3 |
| 20260505164502 | 77 | 267 | 3.5 | 11.3 | 0.00 | 0.00 | 0.00 | 41 | 1016.3 |
| 20260505164002 | 77 | 327 | 3.5 | 8.7 | 0.00 | 0.00 | 0.00 | 42 | 1016.3 |
| 20260505163503 | 77 | 254 | 3.5 | 8.7 | 0.00 | 0.00 | 0.00 | 45 | 1016.4 |
| 20260505163002 | 77 | 300 | 3.5 | 9.6 | 0.00 | 0.00 | 0.00 | 45 | 1016.5 |
| 20260505162501 | 77 | 309 | 3.5 | 9.6 | 0.00 | 0.00 | 0.00 | 46 | 1016.4 |
| 20260505161502 | 76 | 302 | 2.6 | 8.7 | 0.00 | 0.00 | 0.00 | 46 | 1016.5 |
| 20260505161002 | 76 | 128 | 1.7 | 6.1 | 0.00 | 0.00 | 0.00 | 52 | 1016.6 |
| 20260505160501 | 75 | 259 | 1.7 | 7.0 | 0.00 | 0.00 | 0.00 | 49 | 1016.6 |
| 20260505153002 | 74 | 181 | 0.9 | 2.6 | 0.00 | 0.00 | 0.00 | 55 | 1016.9 |
| 20260505152504 | 74 | 317 | 0.9 | 3.5 | 0.00 | 0.00 | 0.00 | 57 | 1016.8 |
| 20260505152002 | 73 | 182 | 1.7 | 4.3 | 0.00 | 0.00 | 0.00 | 56 | 1016.9 |
| 20260505151503 | 73 | 257 | 1.7 | 4.3 | 0.00 | 0.00 | 0.00 | 57 | 1017.0 |
| 20260505151001 | 72 | 194 | 1.7 | 5.2 | 0.00 | 0.00 | 0.00 | 58 | 1017.0 |
| 20260505150503 | 72 | 304 | 1.7 | 5.2 | 0.00 | 0.00 | 0.00 | 59 | 1017.1 |
| 20260505125000 | 55 | 290 | 1.7 | 6.1 | 0.00 | 0.00 | 0.00 | 87 | 1016.4 |
| 20260505124502 | 55 | 295 | 1.7 | 6.1 | 0.00 | 0.00 | 0.00 | 88 | 1016.3 |
| 20260505124000 | 54 | 290 | 1.7 | 3.5 | 0.00 | 0.00 | 0.00 | 88 | 1016.3 |
| 20260505123500 | 54 | 290 | 0.9 | 3.5 | 0.00 | 0.00 | 0.00 | 89 | 1016.3 |
| 20260505123003 | 53 | 269 | 0.9 | 3.5 | 0.00 | 0.00 | 0.00 | 89 | 1016.1 |
| 20260505122502 | 53 | 279 | 0.9 | 2.6 | 0.00 | 0.00 | 0.00 | 88 | 1016.2 |
| 20260505122000 | 53 | 295 | 1.7 | 4.3 | 0.00 | 0.00 | 0.00 | 89 | 1016.1 |
| 20260505121500 | 52 | 298 | 1.7 | 4.3 | 0.00 | 0.00 | 0.00 | 89 | 1016.1 |
| 20260505121000 | 52 | 285 | 0.9 | 5.2 | 0.00 | 0.00 | 0.00 | 89 | 1016.1 |
| 20260505120003 | 51 | 280 | 0.9 | 2.6 | 0.00 | 0.00 | 0.00 | 91 | 1015.9 |
| 20260505115500 | 51 | 315 | 0.0 | 1.7 | 0.00 | 0.00 | 0.00 | 91 | 1016.0 |
| 20260505115002 | 50 | 246 | 0.0 | 1.7 | 0.00 | 0.00 | 0.00 | 91 | 1016.0 |
| 20260505114500 | 50 | 242 | 0.0 | 0.9 | 0.00 | 0.00 | 0.00 | 91 | 1015.9 |
| 20260505114000 | 49 | 186 | 0.9 | 1.7 | 0.00 | 0.00 | 0.00 | 91 | 1015.8 |
| 20260505113000 | 49 | 186 | 0.0 | 1.7 | 0.00 | 0.00 | 0.00 | 90 | 1015.7 |
| 20260505112002 | 49 | 186 | 0.0 | 0.9 | 0.00 | 0.00 | 0.00 | 89 | 1015.8 |
| 20260505111500 | 49 | 186 | 0.0 | 0.9 | 0.00 | 0.00 | 0.00 | 89 | 1015.8 |
| 20260505111005 | 48 | 186 | 0.0 | 0.9 | 0.00 | 0.00 | 0.00 | 90 | 1015.9 |
| 20260505110500 | 48 | 186 | 0.0 | 1.7 | 0.00 | 0.00 | 0.00 | 90 | 1016.0 |
| 20260505102002 | 47 | 186 | 0.0 | 0.0 | 0.00 | 0.00 | 0.00 | 89 | 1015.6 |
| 20260505100500 | 47 | 186 | 0.0 | 0.0 | 0.00 | 0.00 | 0.00 | 89 | 1015.5 |
| 20260505100006 | 47 | 186 | 0.0 | 0.0 | 0.00 | 0.00 | 0.00 | 88 | 1015.5 |
| 20260505095000 | 47 | 186 | 0.9 | 1.7 | 0.00 | 0.00 | 0.00 | 88 | 1015.6 |
| 20260505094502 | 47 | 186 | 0.0 | 0.9 | 0.00 | 0.00 | 0.00 | 88 | 1015.5 |
| 20260505094001 | 47 | 186 | 0.0 | 0.0 | 0.00 | 0.00 | 0.00 | 87 | 1015.6 |
| 20260505093500 | 47 | 186 | 0.0 | 0.0 | 0.00 | 0.00 | 0.00 | 86 | 1015.6 |
| 20260505093003 | 47 | 186 | 0.0 | 0.0 | 0.00 | 0.00 | 0.00 | 86 | 1015.6 |
| 20260505092500 | 48 | 186 | 0.0 | 0.0 | 0.00 | 0.00 | 0.00 | 87 | 1015.6 |
| 20260505092000 | 48 | 186 | 0.0 | 0.0 | 0.00 | 0.00 | 0.00 | 87 | 1015.6 |
| 20260505090500 | 48 | 186 | 0.0 | 0.0 | 0.00 | 0.00 | 0.00 | 87 | 1015.5 |
| 20260505090002 | 48 | 186 | 0.0 | 0.0 | 0.00 | 0.00 | 0.00 | 84 | 1015.3 |
| 20260505085501 | 48 | 186 | 0.0 | 0.0 | 0.00 | 0.00 | 0.00 | 85 | 1015.3 |
| 20260505084501 | 49 | 186 | 0.0 | 0.0 | 0.00 | 0.00 | 0.00 | 84 | 1015.3 |
| 20260505084001 | 49 | 186 | 0.0 | 0.0 | 0.00 | 0.00 | 0.00 | 85 | 1015.3 |
| 20260505083501 | 49 | 186 | 0.0 | 0.0 | 0.00 | 0.00 | 0.00 | 85 | 1015.1 |
| 20260505083002 | 49 | 186 | 0.0 | 0.0 | 0.00 | 0.00 | 0.00 | 85 | 1015.2 |
| 20260505082501 | 49 | 186 | 0.0 | 0.0 | 0.00 | 0.00 | 0.00 | 85 | 1015.1 |
| 20260505082001 | 49 | 186 | 0.0 | 0.0 | 0.00 | 0.00 | 0.00 | 85 | 1015.1 |
| 20260505081500 | 49 | 186 | 0.0 | 0.0 | 0.00 | 0.00 | 0.00 | 85 | 1015.1 |
| 20260505081003 | 49 | 186 | 0.0 | 0.0 | 0.00 | 0.00 | 0.00 | 86 | 1015.1 |
| 20260505080501 | 49 | 186 | 0.0 | 0.9 | 0.00 | 0.00 | 0.00 | 86 | 1014.9 |
| 20260505080003 | 49 | 186 | 0.0 | 0.9 | 0.00 | 0.00 | 0.00 | 86 | 1015.0 |
| 20260505075502 | 49 | 186 | 0.0 | 0.9 | 0.00 | 0.00 | 0.00 | 85 | 1015.0 |
| 20260505075001 | 49 | 186 | 0.0 | 0.0 | 0.00 | 0.00 | 0.00 | 84 | 1014.9 |
| 20260505074501 | 49 | 186 | 0.0 | 0.0 | 0.00 | 0.00 | 0.00 | 85 | 1014.9 |
| 20260505074000 | 49 | 186 | 0.0 | 0.0 | 0.00 | 0.00 | 0.00 | 85 | 1015.0 |
| 20260505073502 | 49 | 186 | 0.0 | 0.0 | 0.00 | 0.00 | 0.00 | 85 | 1014.9 |
| 20260505073000 | 49 | 186 | 0.0 | 0.0 | 0.00 | 0.00 | 0.00 | 85 | 1015.0 |
| 20260505072500 | 49 | 186 | 0.0 | 0.0 | 0.00 | 0.00 | 0.00 | 85 | 1014.9 |
| 20260505071503 | 49 | 186 | 0.0 | 0.9 | 0.00 | 0.00 | 0.00 | 85 | 1015.2 |
| 20260505071000 | 49 | 186 | 0.0 | 1.7 | 0.00 | 0.00 | 0.00 | 85 | 1015.1 |
| 20260505070500 | 49 | 186 | 0.9 | 1.7 | 0.00 | 0.00 | 0.00 | 85 | 1015.2 |
| 20260505070005 | 50 | 186 | 0.0 | 1.7 | 0.00 | 0.00 | 0.00 | 84 | 1015.2 |
| 20260505065500 | 50 | 186 | 0.0 | 0.0 | 0.00 | 0.00 | 0.00 | 83 | 1015.1 |
| 20260505065000 | 50 | 186 | 0.0 | 0.0 | 0.00 | 0.00 | 0.00 | 83 | 1015.0 |
| 20260505064502 | 50 | 186 | 0.0 | 0.0 | 0.00 | 0.00 | 0.00 | 82 | 1015.1 |
| 20260505064000 | 50 | 186 | 0.0 | 0.0 | 0.00 | 0.00 | 0.00 | 82 | 1015.1 |
| 20260505063501 | 50 | 186 | 0.0 | 0.0 | 0.00 | 0.00 | 0.00 | 82 | 1015.0 |
| 20260505063000 | 50 | 186 | 0.0 | 0.0 | 0.00 | 0.00 | 0.00 | 81 | 1015.1 |
| 20260505062000 | 51 | 186 | 0.0 | 0.0 | 0.00 | 0.00 | 0.00 | 81 | 1015.2 |
| 20260505061500 | 51 | 186 | 0.0 | 0.0 | 0.00 | 0.00 | 0.00 | 82 | 1015.2 |
| 20260505060500 | 51 | 186 | 0.0 | 0.0 | 0.00 | 0.00 | 0.00 | 83 | 1015.1 |
| 20260505060005 | 52 | 186 | 0.0 | 0.0 | 0.00 | 0.00 | 0.00 | 82 | 1015.0 |
| 20260505055500 | 52 | 186 | 0.0 | 0.0 | 0.00 | 0.00 | 0.00 | 82 | 1015.1 |
| 20260505054502 | 53 | 186 | 0.0 | 0.0 | 0.00 | 0.00 | 0.00 | 81 | 1015.1 |
| 20260505054000 | 53 | 186 | 0.0 | 0.0 | 0.00 | 0.00 | 0.00 | 79 | 1015.1 |
| 20260505053500 | 53 | 186 | 0.0 | 0.0 | 0.00 | 0.00 | 0.00 | 80 | 1015.2 |
| 20260505053000 | 53 | 186 | 0.0 | 0.0 | 0.00 | 0.00 | 0.00 | 80 | 1015.2 |
| 20260505052505 | 54 | 186 | 0.0 | 0.0 | 0.00 | 0.00 | 0.00 | 79 | 1015.2 |
| 20260505052000 | 54 | 186 | 0.0 | 0.0 | 0.00 | 0.00 | 0.00 | 78 | 1015.3 |
| 20260505051500 | 54 | 186 | 0.0 | 0.0 | 0.00 | 0.00 | 0.00 | 78 | 1015.3 |
| 20260505050500 | 55 | 186 | 0.0 | 0.0 | 0.00 | 0.00 | 0.00 | 78 | 1015.4 |
| 20260505041500 | 56 | 190 | 0.0 | 0.0 | 0.00 | 0.00 | 0.00 | 71 | 1015.3 |
| 20260505040500 | 56 | 190 | 0.0 | 0.0 | 0.00 | 0.00 | 0.00 | 70 | 1015.3 |
| 20260505040008 | 57 | 190 | 0.0 | 0.9 | 0.00 | 0.00 | 0.00 | 70 | 1015.3 |
| 20260505035502 | 57 | 190 | 0.0 | 0.9 | 0.00 | 0.00 | 0.00 | 70 | 1015.4 |
| 20260505035002 | 57 | 190 | 0.0 | 0.0 | 0.00 | 0.00 | 0.00 | 69 | 1015.4 |
| 20260505034502 | 57 | 190 | 0.0 | 0.0 | 0.00 | 0.00 | 0.00 | 69 | 1015.4 |
| 20260505033502 | 57 | 190 | 0.0 | 0.0 | 0.00 | 0.00 | 0.00 | 68 | 1015.5 |
| 20260505033002 | 58 | 190 | 0.0 | 0.0 | 0.00 | 0.00 | 0.00 | 68 | 1015.5 |
| 20260505032502 | 58 | 190 | 0.0 | 0.0 | 0.00 | 0.00 | 0.00 | 68 | 1015.4 |
| 20260505032004 | 58 | 190 | 0.0 | 0.0 | 0.00 | 0.00 | 0.00 | 68 | 1015.4 |
| 20260505031002 | 58 | 190 | 0.0 | 0.0 | 0.00 | 0.00 | 0.00 | 67 | 1015.4 |
| 20260505030504 | 58 | 190 | 0.0 | 0.0 | 0.00 | 0.00 | 0.00 | 67 | 1015.4 |
| 20260505030005 | 58 | 190 | 0.0 | 0.0 | 0.00 | 0.00 | 0.00 | 68 | 1015.4 |
| 20260505025503 | 59 | 190 | 0.0 | 0.0 | 0.00 | 0.00 | 0.00 | 68 | 1015.4 |
| 20260505025005 | 59 | 190 | 0.0 | 0.0 | 0.00 | 0.00 | 0.00 | 68 | 1015.5 |
| 20260505024503 | 59 | 190 | 0.0 | 0.0 | 0.00 | 0.00 | 0.00 | 68 | 1015.5 |
| 20260505024003 | 59 | 190 | 0.0 | 0.9 | 0.00 | 0.00 | 0.00 | 68 | 1015.4 |
| 20260505023501 | 59 | 190 | 0.0 | 0.9 | 0.00 | 0.00 | 0.00 | 67 | 1015.2 |
| 20260505023005 | 60 | 190 | 0.0 | 0.0 | 0.00 | 0.00 | 0.00 | 67 | 1015.1 |
| 20260505021503 | 60 | 190 | 0.0 | 0.0 | 0.00 | 0.00 | 0.00 | 65 | 1015.0 |
| 20260505020503 | 61 | 190 | 0.0 | 0.9 | 0.00 | 0.00 | 0.00 | 65 | 1015.0 |
| 20260505020006 | 61 | 190 | 0.0 | 0.0 | 0.00 | 0.00 | 0.00 | 64 | 1015.0 |
| 20260505015003 | 61 | 190 | 0.0 | 0.0 | 0.00 | 0.00 | 0.00 | 61 | 1014.9 |
| 20260505014504 | 62 | 190 | 0.0 | 0.0 | 0.00 | 0.00 | 0.00 | 61 | 1014.8 |
| 20260505014003 | 62 | 190 | 0.0 | 0.0 | 0.00 | 0.00 | 0.00 | 60 | 1014.8 |
| 20260505013504 | 62 | 190 | 0.0 | 0.0 | 0.00 | 0.00 | 0.00 | 60 | 1014.8 |
| 20260505013003 | 62 | 190 | 0.0 | 0.0 | 0.00 | 0.00 | 0.00 | 60 | 1014.7 |
| 20260505012502 | 63 | 190 | 0.0 | 0.0 | 0.00 | 0.00 | 0.00 | 60 | 1014.6 |
| 20260505012004 | 63 | 190 | 0.0 | 0.0 | 0.00 | 0.00 | 0.00 | 59 | 1014.6 |
| 20260505011003 | 64 | 190 | 0.0 | 0.0 | 0.00 | 0.00 | 0.00 | 58 | 1014.6 |
| 20260505010503 | 64 | 190 | 0.0 | 0.0 | 0.00 | 0.00 | 0.00 | 57 | 1014.5 |
| 20260505010006 | 65 | 190 | 0.0 | 0.0 | 0.00 | 0.00 | 0.00 | 57 | 1014.5 |
| 20260505005503 | 65 | 190 | 0.0 | 0.0 | 0.00 | 0.00 | 0.00 | 55 | 1014.5 |
| 20260505005002 | 65 | 190 | 0.0 | 0.0 | 0.00 | 0.00 | 0.00 | 55 | 1014.5 |
| 20260505004502 | 66 | 190 | 0.0 | 0.0 | 0.00 | 0.00 | 0.00 | 55 | 1014.5 |
| 20260505004002 | 66 | 190 | 0.0 | 0.0 | 0.00 | 0.00 | 0.00 | 54 | 1014.4 |
| 20260505003503 | 67 | 190 | 0.0 | 0.0 | 0.00 | 0.00 | 0.00 | 54 | 1014.4 |
| 20260505003002 | 67 | 190 | 0.0 | 0.0 | 0.00 | 0.00 | 0.00 | 53 | 1014.3 |
| 20260505002503 | 67 | 190 | 0.0 | 0.0 | 0.00 | 0.00 | 0.00 | 53 | 1014.3 |
| 20260505001502 | 68 | 190 | 0.0 | 0.0 | 0.00 | 0.00 | 0.00 | 52 | 1014.4 |
| 20260505001003 | 69 | 190 | 0.0 | 0.0 | 0.00 | 0.00 | 0.00 | 52 | 1014.3 |
| 20260505000007 | 69 | 190 | 0.0 | 0.0 | 0.00 | 0.00 | 0.00 | 52 | 1014.3 |
| 20260504235503 | 70 | 190 | 0.0 | 0.9 | 0.00 | 0.00 | 0.00 | 52 | 1014.2 |
| 20260504235004 | 70 | 190 | 0.0 | 0.9 | 0.00 | 0.00 | 0.00 | 52 | 1014.2 |
| 20260504234506 | 71 | 190 | 0.0 | 0.0 | 0.00 | 0.00 | 0.00 | 51 | 1014.1 |
| 20260504234003 | 71 | 190 | 0.0 | 0.0 | 0.00 | 0.00 | 0.00 | 51 | 1014.1 |
| 20260504233502 | 71 | 190 | 0.0 | 0.0 | 0.00 | 0.00 | 0.00 | 49 | 1014.0 |
| 20260504233004 | 72 | 190 | 0.0 | 0.9 | 0.00 | 0.00 | 0.00 | 49 | 1013.9 |
| 20260504232502 | 72 | 190 | 0.0 | 0.9 | 0.00 | 0.00 | 0.00 | 49 | 1013.9 |
| 20260504232002 | 72 | 190 | 0.0 | 0.9 | 0.00 | 0.00 | 0.00 | 48 | 1014.0 |
| 20260504231503 | 72 | 190 | 0.0 | 1.7 | 0.00 | 0.00 | 0.00 | 46 | 1014.0 |
| 20260504231003 | 73 | 190 | 0.0 | 2.6 | 0.00 | 0.00 | 0.00 | 47 | 1014.0 |
| 20260504230504 | 73 | 175 | 0.0 | 2.6 | 0.00 | 0.00 | 0.00 | 46 | 1014.0 |
| 20260504230005 | 73 | 269 | 0.0 | 0.0 | 0.00 | 0.00 | 0.00 | 44 | 1013.9 |
| 20260504225504 | 73 | 269 | 0.0 | 1.7 | 0.00 | 0.00 | 0.00 | 44 | 1014.0 |
| 20260504224502 | 74 | 294 | 0.0 | 1.7 | 0.00 | 0.00 | 0.00 | 43 | 1014.0 |
| 20260504224004 | 74 | 248 | 0.9 | 2.6 | 0.00 | 0.00 | 0.00 | 41 | 1013.9 |
| 20260504223502 | 74 | 266 | 0.9 | 2.6 | 0.00 | 0.00 | 0.00 | 40 | 1013.9 |
| 20260504223002 | 74 | 286 | 0.9 | 2.6 | 0.00 | 0.00 | 0.00 | 41 | 1014.0 |
| 20260504222504 | 74 | 284 | 1.7 | 5.2 | 0.00 | 0.00 | 0.00 | 39 | 1014.0 |
| 20260504222004 | 74 | 279 | 1.7 | 5.2 | 0.00 | 0.00 | 0.00 | 38 | 1014.0 |
| 20260504221502 | 74 | 257 | 1.7 | 4.3 | 0.00 | 0.00 | 0.00 | 39 | 1014.1 |
| 20260504221002 | 74 | 268 | 0.9 | 4.3 | 0.00 | 0.00 | 0.00 | 38 | 1014.1 |
| 20260504215501 | 75 | 355 | 2.6 | 7.0 | 0.00 | 0.00 | 0.00 | 36 | 1014.0 |
| 20260504215001 | 75 | 311 | 1.7 | 6.1 | 0.00 | 0.00 | 0.00 | 35 | 1014.1 |
| 20260504214000 | 76 | 143 | 1.7 | 3.5 | 0.00 | 0.00 | 0.00 | 37 | 1014.1 |
| 20260504213500 | 76 | 217 | 1.7 | 4.3 | 0.00 | 0.00 | 0.00 | 36 | 1014.1 |
| 20260504213001 | 76 | 227 | 2.6 | 6.1 | 0.00 | 0.00 | 0.00 | 36 | 1014.1 |
| 20260504212502 | 76 | 263 | 1.7 | 6.1 | 0.00 | 0.00 | 0.00 | 35 | 1014.1 |
| 20260504211502 | 76 | 277 | 2.6 | 8.7 | 0.00 | 0.00 | 0.00 | 35 | 1014.1 |
| 20260504211000 | 76 | 292 | 2.6 | 7.0 | 0.00 | 0.00 | 0.00 | 35 | 1014.0 |
| 20260504210501 | 77 | 253 | 1.7 | 7.0 | 0.00 | 0.00 | 0.00 | 36 | 1014.0 |
| 20260504210004 | 77 | 275 | 1.7 | 3.5 | 0.00 | 0.00 | 0.00 | 36 | 1013.9 |
| 20260504205503 | 77 | 115 | 1.7 | 3.5 | 0.00 | 0.00 | 0.00 | 36 | 1013.9 |
| 20260504205001 | 77 | 302 | 1.7 | 6.1 | 0.00 | 0.00 | 0.00 | 35 | 1014.1 |
| 20260504204001 | 78 | 296 | 0.9 | 7.0 | 0.00 | 0.00 | 0.00 | 34 | 1014.2 |
| 20260504203501 | 78 | 212 | 1.7 | 7.0 | 0.00 | 0.00 | 0.00 | 34 | 1014.2 |
| 20260504203001 | 79 | 242 | 0.9 | 5.2 | 0.00 | 0.00 | 0.00 | 35 | 1014.2 |
| 20260504202503 | 80 | 11 | 0.9 | 5.2 | 0.00 | 0.00 | 0.00 | 34 | 1014.0 |
| 20260504202001 | 80 | 174 | 1.7 | 6.1 | 0.00 | 0.00 | 0.00 | 33 | 1014.1 |
| 20260504201001 | 80 | 187 | 1.7 | 3.5 | 0.00 | 0.00 | 0.00 | 32 | 1014.2 |
| 20260504200501 | 81 | 189 | 1.7 | 3.5 | 0.00 | 0.00 | 0.00 | 35 | 1014.1 |
| 20260504200004 | 80 | 144 | 1.7 | 6.1 | 0.00 | 0.00 | 0.00 | 32 | 1014.2 |
| 20260504195503 | 80 | 161 | 0.9 | 6.1 | 0.00 | 0.00 | 0.00 | 35 | 1014.4 |
| 20260504195001 | 80 | 209 | 0.9 | 2.6 | 0.00 | 0.00 | 0.00 | 31 | 1014.3 |
| 20260504194503 | 81 | 49 | 1.7 | 4.3 | 0.00 | 0.00 | 0.00 | 32 | 1014.5 |
| 20260504194001 | 80 | 206 | 1.7 | 4.3 | 0.00 | 0.00 | 0.00 | 32 | 1014.5 |
| 20260504193500 | 80 | 102 | 2.6 | 6.1 | 0.00 | 0.00 | 0.00 | 34 | 1014.5 |
| 20260504193002 | 80 | 245 | 1.7 | 6.1 | 0.00 | 0.00 | 0.00 | 32 | 1014.6 |
| 20260504192502 | 79 | 205 | 1.7 | 6.1 | 0.00 | 0.00 | 0.00 | 37 | 1014.8 |
| 20260504192001 | 79 | 217 | 1.7 | 6.1 | 0.00 | 0.00 | 0.00 | 35 | 1014.9 |
| 20260504191501 | 79 | 44 | 1.7 | 4.3 | 0.00 | 0.00 | 0.00 | 33 | 1014.9 |
| 20260504191001 | 79 | 250 | 1.7 | 6.1 | 0.00 | 0.00 | 0.00 | 33 | 1015.1 |
| 20260504190003 | 79 | 206 | 1.7 | 7.0 | 0.00 | 0.00 | 0.00 | 36 | 1015.2 |
| 20260504185002 | 78 | 175 | 1.7 | 7.8 | 0.00 | 0.00 | 0.00 | 35 | 1015.4 |